Showing default

POSAT 2, 63488

Orbit data source: Space-Track

POSAT 2, 63488 is a Portuguese payload satellite in SSO that was launched on Tue, 14 Jan 2025 UTC via an FALCON 9 launch vehicle from the Air Force Western Test Range (AFWTR). Payload-class satellites include a variety of spacecraft equipped with specific instruments for various scientific and technological missions. These include communications satellites like Starlink; space stations such as the ISS; scientific satellites like the Hubble; Earth observation satellites from companies like Planet Labs, Umbra, and HawkEye 360; GPS; miniature CubeSats for education and research; and military/defense satellites.

Loading next visibility...
Identifier
63488, 2025-009DR
Orbit
SSO
Country
Flag of PTPT / POR
Related business
Manufacturer
LUSO
Mission
Operational Commercial Communications
Bus & Motor
CUBESAT 3U, Unknown motor
Mass
5 kg wet, 5 kg dry
Launch date (UTC)
2025-01-14 (8 months ago)
Launch vehicle
FALCON 9
Launch site
Air Force Western Test Range (AFWTR)
Object type
Payload
Rocket body
Debris
Shape & HBR
Box + 2 Pan, 0.3 m
Radar Cross Section
0.048 m², Small (<0.1 m²)

Expand to show TLE details & history
Last TLE update: 7 hours ago

TLE from 7 hours ago
0 POSAT 2
1 63488U 25009DR  25242.92015928  .00010916  00000-0  77442-3 0  9990
2 63488  97.5153 319.6088 0008138  66.0777 294.1301 15.04896956 22871
Epoch: 2025-08-30T22:05Z
TLE epoch observation values (Epoch: 2025-08-30T22:05:01.761Z)
Latitude
-0.00007°
Longitude
9.00393°
Altitude
552.586 km
Speed
7.587 km/s
True Right ascension
21h 18m 26s
True Declination
0° 00' 00"
Sunlit
Object was in full shadow at epoch
Visualization orbit readout
Latitude
Unknown
Longitude
Unknown
Altitude
Unknown
Speed
Unknown
Apparent Right ascension
Unknown
Apparent Declination
Unknown
Sunlit
N/A
Visualization observer readout
Local Sidereal Time
21:09:31
Azimuth
Unknown
Elevation
Unknown
Doppler factor
Unknown
Orbital elements
Apogee altitude
554.45 km
Perigee altitude
543.176 km
Semi-major axis
6,926.95 km
Eccentricity
0.00081
Inclination
97.5153°
RAAN
319.6088°
Arg. of periapsis
66.0777°
True anomaly
294.04496°
Mean anomaly
294.1301°
Eccentric anomaly
294.08753°
Mean motion
3.7647 °/min
Orbital period
95.63 mins
BSTAR
0.00077442
Loading maneuver chart data...
Computing Atmospheric mass density...
Loading historical data...
Loading historical data...
Loading historical data...
Loading historical data...
Loading historical data...
Loading historical data...
Loading historical data...

Documentation

Showing up to 5 results
|